Location: Angwan Shehu
(11.2514°N, 7.4613°E)
Time: 22:39:01
(UTC+00:00)

Vanguard 3 - Pass Details

Date: 06 August 2021
Orbit: 510 x 3260 km, 33.3° (Epoch: 18 September)

Event Time Altitude Azimuth Distance (km) Brightness Sun altitude
Rises 22:57:53 0° 301° (WNW) 7,113 12.3 -60.8°
Reaches altitude 10° 23:02:35 10° 299° (WNW) 6,177 11.8 -61.1°
Enters shadow 23:13:13 40° 292° (WNW) 4,133 10.5 -61.8°
